Location: Austin
(30.3000°N, 97.7500°W)
Time: 23:34:08
(UTC-05:00)

Aureole 3 Rocket - Pass Details

Date: 06 May 2026
Orbit: 398 x 1686 km, 82.5° (Epoch: 13 May)

Event Time Altitude Azimuth Distance (km) Brightness Sun altitude
Exits shadow 23:07:12 64° 34° (NE) 1,170 4.3 -32.0°
Drops below altitude 10° 23:13:57 10° 9° (N) 3,335 7.2 -33.0°
Sets 23:17:10 0° 8° (N) 4,488 8.0 -33.4°
